Regional Weather Roundup
Issued by NWS Northern Indiana

Home | Current Version | Previous Version | Graphics & Text | Print | Product List | Glossary On
Versions: 1 2 3 4 5 6 7 8 9 10 11 12 13 14 15 16 17 18 19 20 21 22 23 24 25 26 27 28 29 30 31 32 33 34 35 36 37 38 39 40 41 42 43 44 45 46 47 48 49 50
000
ASUS43 KIWX 251010
RWRIWX

KIWX WEATHER ROUNDUP
NATIONAL WEATHER SERVICE NORTHERN INDIANA
600 AM EDT FRI JUL 25 2014

NOTE: "FAIR" INDICATES FEW OR NO CLOUDS BELOW 12,000 FEET WITH NO
SIGNIFICANT WEATHER AND/OR OBSTRUCTIONS TO VISIBILITY.

* THESE STATIONS ARE NOT UNDER NWS QUALITY CONTROL. THEY ALSO MAY NOT
  REPORT WEATHER SUCH AS PRECIPITATION OR FOG.

INZ001>027-251100-
NORTHERN INDIANA

CITY           SKY/WX    TMP DP  RH WIND       PRES   REMARKS
GARY*          PTCLDY    55  52  88 SW3       30.09R
VALPARAISO     CLEAR     50  48  93 W5        30.09R
MICHIGAN CITY* PTCLDY    46  46 100 CALM      30.08R
LAPORTE*       CLEAR     49  49 100 W3        30.09R
KNOX*          CLEAR     49  47  93 S3        30.07F
SOUTH BEND     CLEAR     56  49  77 CALM      30.07F
GOSHEN         CLEAR     53  50  89 SE5       30.07F
MONTICELLO*    CLEAR     51  51  98 CALM      30.08S
LOGANSPORT*    MOCLDY    48  46  93 CALM      30.10S
ROCHESTER*     CLEAR     52  52 100 SE3       30.08F
WARSAW*        CLEAR     50  50 100 CALM      30.08F
ANGOLA*        CLOUDY    52  52 100 CALM      30.09S VSB 1/4
FORT WAYNE     PTCLDY    56  51  84 S5        30.10R
HUNTINGTON*    PTCLDY    53  52  95 CALM      30.10R
PERU/GRISSOM   PTCLDY    52  52 100 CALM      30.09S
MARION*        CLEAR     50  49  97 CALM      30.11S

$$
INZ028>050-251100-
CENTRAL INDIANA

CITY           SKY/WX    TMP DP  RH WIND       PRES   REMARKS
LAFAYETTE      CLEAR     52  51  97 CALM      30.10R
KOKOMO*        CLEAR     52  50  93 CALM      30.11R
MUNCIE*        CLEAR     52  49  89 CALM      30.10R
INDIANAPOLIS   CLEAR     58  53  84 CALM      30.09R

$$
MIZ043>046-050>051-056>058-064>065-071>073-077>080-251100-
SOUTHWEST LOWER MICHIGAN

CITY           SKY/WX    TMP DP  RH WIND       PRES   REMARKS
BATTLE CREEK   CLEAR     54  50  86 S5        30.08S
BENTON HARBOR  PTCLDY    49  47  93 CALM      30.07R
COLDWATER*     PTCLDY    54  53  96 CALM      30.08F
HILLSDALE*     PTCLDY    53  53  99 CALM      30.09S
HOLLAND        PTCLDY    52  49  89 CALM      30.06S
GRAND RAPIDS   PTCLDY    53  50  89 CALM      30.06F
KALAMAZOO      PTCLDY    55  52  89 S5        30.07F
STURGIS*       CLEAR     52  50  93 CALM      30.07F
THREE RIVERS*  FAIR      54  54  99 CALM      30.07F

$$
OHZ001>008-015>018-024>025-251100-
NORTHWEST OHIO

CITY           SKY/WX    TMP DP  RH WIND       PRES   REMARKS
WAUSEON*       FAIR      52  50  93 CALM      30.10R
DEFIANCE       CLEAR     51  49  92 CALM      30.11R FOG
FINDLAY        CLEAR     51  48  89 SE3       30.09R
TOLEDO EXPRESS CLEAR     51  50  96 CALM      30.09R
TOLEDO METCALF PTCLDY    53  48  83 S3        30.10R
LIMA           CLEAR     54  49  83 CALM      30.10R

$$
&&



USA.gov is the U.S. government's official web portal to all federal, state and local government web resources and services.